Regional Weather Roundup
Issued by NWS

Home | Current Version | Previous Version | Graphics & Text | Print | Product List | Glossary On
Versions: 1 2 3 4 5 6 7 8 9 10 11 12 13 14 15 16 17 18 19 20 21 22 23 24 25 26 27 28 29 30 31 32 33 34 35 36 37 38 39 40 41 42 43 44 45 46 47 48 49 50
000
ASUS45 KBOU 170507
RWRCO

WEATHER ROUNDUP FOR COLORADO
NATIONAL WEATHER SERVICE DENVER/BOULDER CO
1100 PM MDT THU APR 16 2015

NOTE: "FAIR" INDICATES FEW OR NO CLOUDS BELOW 12000 FEET WITH NO
SIGNIFICANT WEATHER AND/OR OBSTRUCTIONS TO VISIBILITY.

COZ001>005-013-030-031-170600-
...NORTHWEST COLORADO...

CITY           SKY/WX    TMP DP  RH WIND       PRES   REMARKS
CRAIG          MOCLDY    32  30  92 N3        30.07S
HAYDEN         MOCLDY    34  28  80 SW8       30.06F WCI  27
MEEKER         CLOUDY    34  32  92 MISG      30.06F
MOUNT WERNER   NOT AVBL
STEAMBOAT SPGS CLOUDY    39  25  56 W3        30.05S
WALDEN         CLOUDY    32  23  69 NW6       30.12F WCI  26
$$

COZ006>008-011-170600-
...WEST CENTRAL VALLEYS...

CITY           SKY/WX    TMP DP  RH WIND       PRES   REMARKS
GRAND JUNCTION LGT RAIN  42  36  79 CALM      30.04S
MONTROSE       CLOUDY    36  33  89 SE7       30.08S
EAGLE          CLOUDY    39  36  87 CALM      30.06R
RIFLE          LGT RAIN  38  35  89 SE5       30.04F
DELTA          CLOUDY    43  34  71 NE10      30.07S
NUCLA          CLOUDY    36  28  75 E7        30.11F
$$

COZ017>023-064>068-170600-
...SOUTHWEST COLORADO...

CITY           SKY/WX    TMP DP  RH WIND       PRES   REMARKS
DURANGO        CLOUDY    36   5  27 SW3       30.04S
CORTEZ         PTCLDY    36  10  34 CALM      30.08R
PAGOSA SPRINGS CLOUDY    33  12  42 CALM      30.05S
TELLURIDE      LGT SNOW  24  24  99 W6        30.07F WCI  17
WOLF CREEK PAS LGT SNOW  12   7  79 SW16      30.06F WCI  -4
$$

COZ009-010-012-014-032>034-037-058>063-170600-
...CENTRAL COLORADO...

CITY           SKY/WX    TMP DP  RH WIND       PRES   REMARKS
ASPEN          LGT SNOW  30  30 100 CALM      30.02F FOG
BUENA VISTA    LGT SNOW  30  28  92 CALM      30.08F VSB 1
COPPER MTN     LGT SNOW  27  21  80 E14G21    30.10S VSB 3/4 WCI  15
BERTHOUD PASS  SNOW      16   9  73 MISG      30.15R VSB 1/2
COTTONWOOD PAS LGT SNOW  30  27  86 SE5       30.08S VSB 1   WCI  25
GUNNISON       CLOUDY    28  25  86 CALM      30.06F
KREMMLING      CLOUDY    36  27  69 N9        30.10R
LEADVILLE      LGT SNOW  24  23  96 CALM      30.04F FOG
MONARCH PASS   CLOUDY    19  18  93 MISG      30.18R
SALIDA         NOT AVBL
SUNLIGHT       SNOW     N/A N/A N/A CALM      30.09S VSB 1/2
WILKERSON PASS SNOW     N/A N/A N/A NE9G23    30.13R VSB 1/2
$$

COZ069>075-170600-
...SAN LUIS VALLEY/SANGRE DE CRISTO MOUNTAINS...

CITY           SKY/WX    TMP DP  RH WIND       PRES   REMARKS
ALAMOSA        CLOUDY    33  31  92 CALM      30.01S
LA VETA PASS   HVY SNOW  23  21  93 MISG      30.08R VSB 1/4
SAGUACHE       CLOUDY    30  30 100 CALM      30.01F
$$

COZ035-036-038>040-170600-
...NORTHERN COLORADO FRONT RANGE...

CITY           SKY/WX    TMP DP  RH WIND       PRES   REMARKS
DENVER INTL AP RAIN      34  33  96 NW14      30.11F VSB 1/4 WCI  25
DMNS CITY PARK NOT AVBL
AURORA         LGT SNOW  32  32 100 NW14      30.12F FOG     WCI  22
FRONT RANGE AP NOT AVBL
ERIE MUNI ARPT LGT SNOW  34  34 100 NW8G17    30.14F WCI  27
BOULDER MUN AP MIX PCPN  34  34 100 W5        30.14F WCI  30
CENTENNIAL     LGT SNOW  32  32 100 W8        30.13F FOG     WCI  25
BROOMFIELD     NOT AVBL
FORT COLLINS   CLOUDY    37  34  87 NW15G21   30.16F
LONGMONT       MIX PCPN  38  37  92 NW9       30.16F
$$

COZ041-046-047-076>085-087-088-170600-
...PIKES PEAK/PALMER DIVIDE AND SOUTHERN FOOTHILLS...

CITY           SKY/WX    TMP DP  RH WIND       PRES   REMARKS
COLO. SPRINGS  LGT SNOW  33  31  92 NW17G30   30.09F FOG     WCI  22
A. F. ACADEMY  CLOUDY    32  32 100 N17G23    30.09F FOG     WCI  21
ELLICOTT       CLOUDY   N/A N/A N/A N17G26    30.06S
FALCON         NOT AVBL
FORT CARSON    LGT RAIN  34  34  99 N26G37    30.05F WCI  21
LIMON          CLOUDY    36  35  96 NW10      30.07F
MONUMENT HILL  SNOW      30  30 100 NW14      30.10F VSB 1/2 WCI  20
TRINIDAD       CLOUDY    36  34  92 MISG      30.05F FOG
$$

COZ042>045-048>051-090-091-170600-
...NORTHEAST COLORADO...

CITY           SKY/WX    TMP DP  RH WIND       PRES   REMARKS
GREELEY ARPT   CLOUDY    39  36  87 N16G22    30.13F
AKRON          LGT RAIN  46  46 100 NE9       30.09F VSB 3/4
BURLINGTON     RAIN      50  47  89 NE26      30.06F FOG
WRAY           RAIN     N/A N/A N/A NE8       30.08F
STERLING       LGT RAIN  46  46 100 NE7       30.10F
HOLYOKE        CLOUDY    54  50  87 NE8       30.10S
FORT MORGAN    CLOUDY    44  42  94 NE20G25   30.09F
$$

COZ086-089-092>099-170600-
...SOUTHEAST COLORADO...

CITY           SKY/WX    TMP DP  RH WIND       PRES   REMARKS
PUEBLO         LGT RAIN  40  36  86 W15G24    30.06F
LA JUNTA       HVY RAIN  43  40  89 CALM      30.05R FOG
LAMAR          MOCLDY    50  49  96 NE8       29.97S
SPRINGFIELD      N/A     47  47 100 VRB7      29.99S
$$


USA.gov is the U.S. government's official web portal to all federal, state and local government web resources and services.